Location: Zagreb
(45.8000°N, 16.0000°E)
Time: 14:43:29
(UTC+02:00)

Transit 2A - Pass Details

Date: 12 August 2022
Orbit: 601 x 956 km, 66.7° (Epoch: 25 September)

Event Time Altitude Azimuth Distance (km) Brightness Sun altitude
Rises 11:45:09 0° 190° (S) 3,179 9.6 55.2°
Reaches altitude 10° 11:47:44 10° 183° (S) 2,201 9.0 55.5°
Maximum altitude 11:52:19 39° 116° (ESE) 1,011 8.0 55.9°
Drops below altitude 10° 11:56:35 10° 47° (NE) 2,039 8.3 56.3°
Sets 11:58:53 0° 40° (NE) 2,918 8.9 56.5°
